Regional Weather Roundup
Issued by NWS Goodland, KS

Home | Current Version | Previous Version | Text Only | Print | Product List | Glossary On
Versions: 1 2 3 4 5 6 7 8 9 10 11 12 13 14 15 16 17 18 19 20 21 22 23 24 25 26 27 28 29 30 31 32 33 34 35 36 37 38 39 40 41 42 43 44 45 46 47 48 49 50
000
ASUS43 KGLD 290808
RWRGLD

GOODLAND FORECAST AREA HOURLY WEATHER ROUNDUP
NATIONAL WEATHER SERVICE GOODLAND KS
200 AM MDT MON AUG 29 2016

...OFFICIAL OBSERVATIONS...

CITY           SKY/WX    TMP DP  RH WIND       PRES   REMARKS
GOODLAND KS    CLOUDY    66  59  78 SW10      30.17F
HILL CITY KS   CLOUDY    66  64  93 CALM      30.16R
IMPERIAL NEB   CLOUDY    68  62  81 S12       30.15S
MCCOOK NEB     CLOUDY    65  62  90 E5        30.14S
AKRON CO       CLOUDY    66  46  48 S6        30.20S
BURLINGTON CO  MOCLDY    63  58  83 NW7       30.21S
LIMON CO       CLOUDY    59  54  83 CALM      30.26F
$$

...UNOFFICIAL OBSERVATIONS...

CITY           SKY/WX    TMP DP  RH WIND       PRES   REMARKS
COLBY KS       PTCLDY    66  64  94 S5        30.18S
LENORA KS        N/A     68  32  26 MISG        N/A
NORTON KS      MOCLDY    68  57  68 SE5       30.16R
SHARON SPRINGS   N/A     62  59  91 S7          N/A
TRENTON NEB      N/A     65  32  29 MISG        N/A
KIT CARSON CO    N/A     64  58  81 CALM        N/A
YUMA CO          N/A     60  53  79 CALM        N/A
$$




USA.gov is the U.S. government's official web portal to all federal, state and local government web resources and services.